Simultaneous Nadir Overpasses (SNOs) Predictions

Prediction of SNOs between METOP-B and NOAA-19 Satellite Orbit:

Table of predicted SNOs for the next 14.0 days since TLE Epoch: 4/13/2018
Index Date (METOP-B) Time (METOP-B) Lat,Lon (METOP-B) SZA (METOP-B ) Date (NOAA-19) Time (NOAA-19) Lat,Lon (NOAA-19) SZA (NOAA-19 ) Distance(km) Time Diff (sec)
1 04/24/2018 04:58:51 -78.21, -65.66 114.53 04/24/2018 04:57:35 -78.22, -65.51 114.53 3.50 76
2 04/24/2018 05:49:31 78.21, 101.64 65.46 04/24/2018 05:48:39 78.22, 101.76 65.46 2.93 52
3 04/24/2018 06:40:12 -78.23, -90.88 114.53 04/24/2018 06:39:36 -78.21, -90.97 114.56 2.98 36
4 04/24/2018 07:30:53 78.19, 76.20 65.41 04/24/2018 07:30:40 78.21, 76.30 65.43 3.20 13
5 04/24/2018 08:21:34 -78.22,-116.32 114.57 04/24/2018 08:21:37 -78.20,-116.42 114.59 2.60 3
6 04/24/2018 09:12:14 78.21, 50.98 65.41 04/24/2018 09:12:41 78.20, 50.85 65.40 3.21 27
7 04/24/2018 10:02:56 -78.20,-141.75 114.62 04/24/2018 10:03:38 -78.20,-141.87 114.61 2.68 42
8 04/24/2018 10:53:36 78.19, 25.54 65.37 04/24/2018 10:54:42 78.19, 25.39 65.37 3.45 66




NCC Satellite Simultaneous Nadir Overpasses (SNOs) Prediction Service
